Content
SEND FEEDBACK

Daily
Averages
Monthly
Summary
United States of America

TOPEKA, KANSAS


Home > North America > United States > Kansas
Elevation: 877 feet     Latitude: 39 04N     Longitude: 095 38W

WEATHER
 
SELECT A DAY
Number of Records: 204,511;   Date Range: 1/1/95 - 9/21/14
 
SHARE

PRINT THIS DATA

[ ← Previous Day ]
WEATHER ALMANAC - FEBRUARY 13, 2013
[ Next Day → ]
[ °C ]   °F
Weather ElementAverageHighLow
Temperature40.5 °F57 °F (1:53 pm)26.1 °F (6:53 am)
Dewpoint23.3 °F26.1 °F (11:53 am)21 °F (6:53 am)
Humidity54.9 %81 % (3:53 am)27 % (1:53 pm)
Barometer29.89 in29.96 in (1:53 am)29.83 in (2:53 pm)
Wind Speed7.2 mph17.3 mph (3:53 pm)
Wind Gust26.5 mph (3:53 pm)
Weather ElementAverage
Visibility10 mi
Wind DirectionSW (227.8 °)

Weather ElementTotal
Precipitation---
Heating Degree Days23.5 (Base 65)
Averaged from 23 records on February 13, 2013
WEATHER CONDITIONS BREAKOUT
WIND DIRECTION BREAKOUT
WEATHER BY HOUR - FEBRUARY 13, 2013
[ °C ]   °F
Local TimeTemperatureDewpointHumidityBarometerVisibilityWind DirectionWind SpeedGust SpeedPrecipitationEventsConditions
1:53 AM30.9 °F21.9 °F69 %29.96 in10.0 miWSW (250°)6.9 mphClear
2:53 AM30.0 °F21.9 °F72 %29.95 in10.0 miWest (260°)4.6 mphClear
3:53 AM27.0 °F21.9 °F81 %29.94 in10.0 miWest (280°)5.8 mphClear
4:53 AM28.0 °F21.9 °F78 %29.94 in10.0 miWest (280°)5.8 mphClear
5:53 AM28.0 °F21.9 °F78 %29.94 in10.0 miWest (270°)9.2 mphClear
6:53 AM26.1 °F21.0 °F81 %29.94 in10.0 miWest (270°)4.6 mphClear
7:53 AM28.0 °F21.9 °F78 %29.94 in10.0 miWest (270°)5.8 mphClear
8:53 AM33.1 °F24.1 °F70 %29.94 in10.0 miWest (270°)5.8 mphClear
9:53 AM37.0 °F25.0 °F62 %29.94 in10.0 miWest (270°)9.2 mphClear
10:53 AM42.1 °F25.0 °F51 %29.94 in10.0 miWest (270°)10.4 mphClear
11:53 AM48.9 °F26.1 °F41 %29.93 in10.0 miWSW (250°)11.5 mphClear
12:53 PM53.1 °F25.0 °F34 %29.88 in10.0 miWest (260°)9.2 mph17.3 mphClear
1:53 PM57.0 °F23.0 °F27 %29.85 in10.0 miWest (270°)11.5 mphClear
2:53 PM57.0 °F24.1 °F28 %29.83 in10.0 miWest (270°)12.7 mph21.9 mphClear
3:53 PM55.9 °F24.1 °F29 %29.83 in10.0 miWest (270°)17.3 mph26.5 mphClear
4:53 PM55.0 °F23.0 °F29 %29.83 in10.0 miWest (270°)12.7 mphClear
5:53 PM51.1 °F24.1 °F35 %29.84 in10.0 miWest (270°)6.9 mphClear
6:53 PM48.9 °F23.0 °F36 %29.84 in10.0 miWSW (240°)5.8 mphClear
7:53 PM46.9 °F21.9 °F37 %29.85 in10.0 miSW (220°)5.8 mphClear
8:53 PM45.0 °F21.9 °F40 %29.84 in10.0 miSW (230°)4.6 mphClear
9:53 PM36.0 °F25.0 °F64 %29.85 in10.0 miCalmClear
10:53 PM34.0 °F25.0 °F70 %29.86 in10.0 miCalmClear
11:53 PM32.0 °F24.1 °F73 %29.86 in10.0 miCalmClear
Hourly data recorded from KTOP, located miles away from Topeka, Kansas







STORIES FROM OUR PARTNERS